• MPC Preparation (Info)

  • MPEC 2014-Q65 : 2014 QX266

    The following Minor Planet Electronic Circular may be linked-to from your own Web pages, but must not otherwise be redistributed electronically.

    A form allowing access to any MPEC is at the bottom of this page.


    Read MPEC 2014-Q64 Read MPEC 2014-Q66


    M.P.E.C. 2014-Q65                                Issued 2014 Aug. 27, 14:08 UT
    
         The Minor Planet Electronic Circulars contain information on unusual
             minor planets and routine data on comets.  They are published
       on behalf of Commission 20 of the International Astronomical Union by the
              Minor Planet Center, Smithsonian Astrophysical Observatory,
                              Cambridge, MA 02138, U.S.A.
    
                 Prepared using the Tamkin Foundation Computer Network
    
                                  MPC@CFA.HARVARD.EDU
                URL https://www.minorplanetcenter.net/    ISSN 1523-6714
    
                                      2014 QX266
    
    Observations:
         K14QQ6X* C2014 08 22.38689 21 04 53.775-24 36 43.92         20.3 wLEQ065F51
         K14QQ6X  C2014 08 22.40983 21 04 53.234-24 36 19.46         20.4 wLEQ065F51
         K14QQ6X  C2014 08 22.42128 21 04 52.962-24 36 07.24         20.2 wLEQ065F51
         K14QQ6X KC2014 08 24.31650 21 04 42.91 -24 03 09.2          20.1 RoEQ065291
         K14QQ6X KC2014 08 24.32084 21 04 42.84 -24 03 04.6          20.1 RoEQ065291
         K14QQ6X KC2014 08 24.32519 21 04 42.77 -24 02 59.7          20.0 RoEQ065291
         K14QQ6X |C2014 08 26.18524 21 04 42.11 -23 30 49.9          20.8 VuEQ065807
         K14QQ6X |C2014 08 26.19022 21 04 42.05 -23 30 44.9          20.6 VuEQ065807
         K14QQ6X |C2014 08 26.19523 21 04 41.99 -23 30 39.6          20.6 VuEQ065807
         K14QQ6X |C2014 08 27.15873 21 04 45.37 -23 14 36.8          20.6 VuEQ065807
         K14QQ6X |C2014 08 27.16433 21 04 45.30 -23 14 31.4          20.9 VuEQ065807
         K14QQ6X |C2014 08 27.16995 21 04 45.25 -23 14 25.6          20.5 VuEQ065807
    
    Observer details:
    291 LPL/Spacewatch II.  Observers T. H. Bressi, A. F. Tubbiolo.  1.8-m f/2.7
        reflector + CCD.
    807 Cerro Tololo.  Observers T. Linder, R. Holmes.  0.41-m f/11
        Ritchey-Chretien + CCD.
    F51 Pan-STARRS 1, Haleakala.  Observers N. Primak, A. Schultz, T. Goggia,
        M. Willman.  Measurers B. Bolin, K. Chambers, S. Chastel, L. Denneau,
        H. Flewelling, M. Huber, E. Magnier, E. Schunova, R. Wainscoat, C. Waters.
        1.8-m Ritchey-Chretien + CCD.
    
    Orbital elements:
    2014 QX266                                               Earth MOID = 0.0975 AU
    Epoch 2014 Dec. 9.0 TT = JDT 2457000.5                  MPC
    M 108.94744              (2000.0)            P               Q
    n   0.58809807     Peri.  262.82411     -0.19451363     +0.98089365
    a   1.4109216      Node   355.95461     -0.87937961     -0.17595197
    e   0.2229723      Incl.    2.82608     -0.43457559     -0.08299734
    P   1.68           H   22.1           G   0.15           U   7
    Residuals in seconds of arc
    140822 F51  0.1-  0.0     140824 291  0.0   0.2-    140826 807  0.0   0.3+
    140822 F51  0.0   0.1+    140824 291  0.0   0.1+    140827 807  0.1+  0.0
    140822 F51  0.0   0.0     140826 807  0.0   0.2+    140827 807  0.1-  0.2-
    140824 291  0.0   0.2-    140826 807  0.0   0.1+    140827 807  0.1-  0.1-
    
    Ephemeris:
    2014 QX266               a,e,i = 1.41, 0.22, 3                   q = 1.0963
    Date    TT    R. A. (2000) Decl.     Delta      r     Elong.  Phase     V
    2014 07 28    21 18 04.5 -33 14 39   0.1541  1.1630   162.0    15.7    19.2
    ...
    2014 08 12    21 08 12.2 -27 52 27   0.1937  1.2026   166.6    11.3    19.6
    ...
    2014 08 20    21 05 18.4 -25 19 06   0.2225  1.2260   162.6    14.3    20.1
    ...
    2014 08 26    21 04 42.3 -23 34 02   0.2479  1.2444   158.3    17.5    20.5
    2014 08 27    21 04 44.9 -23 17 20   0.2525  1.2475   157.5    18.1    20.5
    2014 08 28    21 04 50.0 -23 00 51   0.2571  1.2506   156.7    18.6    20.6
    ...
    2014 09 03    21 06 12.5 -21 26 26   0.2871  1.2696   152.1    21.8    21.0
    ...
    2014 09 11    21 10 12.7 -19 31 28   0.3321  1.2956   146.0    25.7    21.4
    ...
    2014 09 26    21 23 13.5 -16 20 41   0.4320  1.3451   135.4    31.6    22.3
    
    A. U. Tomatic                (C) Copyright 2014 MPC           M.P.E.C. 2014-Q65
    

    Read MPEC 2014-Q64 Read MPEC 2014-Q66


    MPEC number:

    Enter an MPEC number in one of the following forms:

    • 1997-B01 (the full form)
    • J97B01 (the packed version of the full form)
    • B01 (the abbreviated form)